Weather History for Newberry, SC

Change the Weather History Date:

Saturday, January 11, 2014

  Actual Average (KFDW) Record (KFDW)
Temperature  
Mean Temperature 56 °F -  
Max Temperature 68 °F 48 °F 64 °F (2012)
Min Temperature 44 °F 28 °F 32 °F (2011)
Degree Days  
Heating Degree Days 9    
Growing Degree Days 6 (Base 50)    
Moisture  
Dew Point 53 °F    
Average Humidity 98    
Maximum Humidity 100    
Minimum Humidity 82    
Precipitation  
Precipitation 1.34 in - - ()
Sea Level Pressure  
Sea Level Pressure 29.85 in    
Wind  
Wind Speed 6 mph (SW)    
Max Wind Speed 22 mph    
Max Gust Speed 36 mph    
Visibility 6 miles    
Events Fog , Rain , Thunderstorm    
Averages and records for this station are not official NWS values.
T = Trace of Precipitation, MM = Missing Value Source: NWS Daily Summary

Daily Weather History Graph

Daily Weather History Graph

Search for Another Location

Airport:

Trip Planner

Search our weather history database for the weather conditions in past years. The results will help you decide how hot, cold, wet, or windy it might be!

Date:

Astronomy

Jan. 11, 2014 Rise Set
Actual Time 7:33 AM EST 5:36 PM EST
Civil Twilight 7:05 AM EST 6:03 PM EST
Nautical Twilight 6:34 AM EST 6:34 PM EST
Astronomical Twilight 6:04 AM EST 7:04 PM EST
Moon 2:17 PM EST (1/11) 3:39 AM EST (1/11)
Length of Visible Light 10h 57m
Length of Day
10h 02m
Waxing Gibbous, 83% of the Moon is Illuminated
Jan 11
Waxing Gibbous
Jan 15
Full
Jan 24
Last Quarter
Jan 30
New
Feb 6
First Quarter

Hourly Weather History & Observations

Time (EST) Temp. Windchill Dew Point Humidity Pressure Visibility Wind Dir Wind Speed Gust Speed Precip Events Conditions
12:15 AM 44.6 °F 43.1 °F 44.6 °F 100% 30.09 in 2.0 mi NNE 3.5 mph - N/A   Overcast
12:35 AM 44.6 °F - 44.6 °F 100% 30.08 in 2.0 mi Calm Calm - N/A   Overcast
12:55 AM 44.6 °F 43.1 °F 44.6 °F 100% 30.06 in 1.8 mi ENE 3.5 mph - N/A   Overcast
1:15 AM 44.6 °F 42.2 °F 44.6 °F 100% 30.05 in 0.8 mi NNE 4.6 mph - N/A   Overcast
1:35 AM 44.6 °F - 44.6 °F 100% 30.04 in 0.5 mi Calm Calm - N/A Fog Fog
1:55 AM 44.6 °F - 44.6 °F 100% 30.03 in 0.2 mi Calm Calm - 0.01 in Fog Fog
2:15 AM 44.6 °F - 44.6 °F 100% 30.02 in 0.2 mi Calm Calm - N/A Fog Fog
2:35 AM 44.6 °F - 44.6 °F 100% 30.01 in 0.2 mi Calm Calm - N/A Fog Fog
2:55 AM 44.6 °F 43.1 °F 44.6 °F 100% 30.00 in 0.2 mi North 3.5 mph - N/A Fog Fog
3:15 AM 44.6 °F 43.1 °F 44.6 °F 100% 29.99 in 0.5 mi NE 3.5 mph - N/A Fog Fog
3:35 AM 46.4 °F 43.5 °F 46.4 °F 100% 29.98 in 0.5 mi East 5.8 mph - N/A Fog Fog
3:55 AM 46.4 °F 44.3 °F 46.4 °F 100% 29.96 in 0.5 mi SE 4.6 mph - N/A Fog Fog
4:15 AM 46.4 °F 44.3 °F 46.4 °F 100% 29.96 in 0.5 mi SE 4.6 mph - N/A Fog , Thunderstorm Fog
4:35 AM 46.4 °F - 46.4 °F 100% 29.94 in 0.2 mi Calm Calm - N/A Fog , Thunderstorm Fog
4:55 AM 48.2 °F - 48.2 °F 100% 29.94 in 0.2 mi SE 3.5 mph - N/A Fog Fog
5:15 AM 50.0 °F - 50.0 °F 100% 29.93 in 0.2 mi Calm Calm - N/A Fog , Thunderstorm Fog
5:35 AM 48.2 °F - 48.2 °F 100% 29.93 in 0.2 mi Calm Calm - N/A Fog , Thunderstorm Fog
5:55 AM 48.2 °F - 48.2 °F 100% 29.92 in 0.2 mi Calm Calm - N/A Fog , Thunderstorm Fog
6:15 AM 51.8 °F - 51.8 °F 100% 29.91 in 0.2 mi South 4.6 mph - N/A Fog , Thunderstorm Fog
6:35 AM 53.6 °F - 53.6 °F 100% 29.91 in 0.2 mi SSW 4.6 mph - N/A Fog Fog
6:55 AM 48.2 °F - 48.2 °F 100% 29.91 in 0.5 mi North 3.5 mph - N/A Fog Fog
7:15 AM 46.4 °F 45.2 °F 46.4 °F 100% 29.91 in 1.0 mi North 3.5 mph - N/A Rain Rain
7:35 AM 46.4 °F - 46.4 °F 100% 29.91 in 2.5 mi Calm Calm - 0.01 in   Drizzle
7:55 AM 51.8 °F - 51.8 °F 100% 29.90 in 1.0 mi SSW 11.5 mph 17.3 mph 0.10 in Rain Heavy Rain
8:15 AM 62.6 °F - 62.6 °F 100% 29.89 in 7.0 mi SSW 13.8 mph 29.9 mph 0.04 in Rain Light Rain
8:35 AM 62.6 °F - 62.6 °F 100% 29.85 in 10.0 mi South 11.5 mph 20.7 mph 0.07 in Rain Light Rain
8:55 AM 62.6 °F - 62.6 °F 100% 29.85 in 10.0 mi South 11.5 mph 21.9 mph 0.08 in   Mostly Cloudy
9:15 AM 62.6 °F - 62.6 °F 100% 29.83 in 10.0 mi South 10.4 mph 19.6 mph N/A   Overcast
9:35 AM 64.4 °F - 64.4 °F 100% 29.83 in 10.0 mi South 15.0 mph 25.3 mph N/A   Overcast
9:55 AM 64.4 °F - 64.4 °F 100% 29.83 in 10.0 mi South 13.8 mph 24.2 mph N/A   Overcast
10:15 AM 64.4 °F - 64.4 °F 100% 29.82 in 10.0 mi SSW 16.1 mph 29.9 mph N/A   Overcast
10:35 AM 64.4 °F - 64.4 °F 100% 29.82 in 10.0 mi SSW 17.3 mph 28.8 mph N/A   Overcast
10:55 AM 68.0 °F - 68.0 °F 100% 29.81 in 10.0 mi SSW 16.1 mph 28.8 mph N/A   Overcast
11:15 AM 68.0 °F - 68.0 °F 100% 29.82 in 10.0 mi SW 16.1 mph 26.5 mph N/A   Overcast
11:35 AM 62.6 °F - 59.0 °F 88% 29.89 in 5.0 mi West 20.7 mph 35.7 mph 0.11 in Rain Heavy Rain
11:55 AM 59.0 °F - 59.0 °F 100% 29.86 in 2.0 mi West 10.4 mph 20.7 mph 0.47 in Rain Heavy Rain
12:15 PM 59.0 °F - 59.0 °F 100% 29.82 in 2.5 mi SW 5.8 mph - 0.13 in Rain Heavy Rain
12:35 PM 59.0 °F - 59.0 °F 100% 29.79 in 3.0 mi West 3.5 mph - 0.24 in Rain , Thunderstorm Heavy Thunderstorms and Rain
12:55 PM 57.2 °F - 57.2 °F 100% 29.82 in 3.0 mi SW 8.1 mph - 0.37 in Rain Heavy Rain
1:15 PM 57.2 °F - 57.2 °F 100% 29.81 in 2.5 mi SSW 5.8 mph - 0.06 in Rain Rain
1:35 PM 57.2 °F - 57.2 °F 100% 29.80 in 5.0 mi SW 5.8 mph - 0.10 in Rain Rain
1:55 PM 57.2 °F - 57.2 °F 100% 29.77 in 10.0 mi SW 5.8 mph - 0.14 in Rain Rain
2:15 PM 57.2 °F - 57.2 °F 100% 29.77 in 5.0 mi SSW 6.9 mph - 0.04 in Rain Rain
2:35 PM 57.2 °F - 57.2 °F 100% 29.77 in 5.0 mi SSW 6.9 mph - 0.09 in Rain Rain
2:55 PM 59.0 °F - 59.0 °F 100% 29.73 in 10.0 mi South 5.8 mph - 0.11 in Rain Light Rain
3:15 PM 59.0 °F - 59.0 °F 100% 29.72 in 10.0 mi SSW 9.2 mph - N/A   Overcast
3:35 PM 59.0 °F - 59.0 °F 100% 29.71 in 10.0 mi SW 8.1 mph - N/A   Overcast
3:55 PM 59.0 °F - 59.0 °F 100% 29.74 in 10.0 mi SSW 6.9 mph - N/A   Overcast
4:15 PM 59.0 °F - 59.0 °F 100% 29.73 in 10.0 mi SW 8.1 mph - N/A   Overcast
4:35 PM 59.0 °F - 59.0 °F 100% 29.72 in 10.0 mi SW 6.9 mph - N/A   Overcast
4:55 PM 59.0 °F - 59.0 °F 100% 29.72 in 10.0 mi SSW 5.8 mph - N/A   Mostly Cloudy
5:15 PM 59.0 °F - 59.0 °F 100% 29.71 in 10.0 mi South 3.5 mph - N/A   Scattered Clouds
5:35 PM 57.2 °F - 57.2 °F 100% 29.71 in 10.0 mi SSW 5.8 mph - N/A   Clear
5:55 PM 57.2 °F - 57.2 °F 100% 29.71 in 10.0 mi SSW 5.8 mph - N/A   Clear
6:15 PM 55.4 °F - 55.4 °F 100% 29.72 in 10.0 mi SSW 6.9 mph - N/A   Clear
6:35 PM 55.4 °F - 55.4 °F 100% 29.73 in 10.0 mi SSW 9.2 mph - N/A   Mostly Cloudy
6:55 PM 55.4 °F - 55.4 °F 100% 29.74 in 10.0 mi SW 6.9 mph - N/A   Mostly Cloudy
7:15 PM 55.4 °F - 55.4 °F 100% 29.74 in 10.0 mi SW 8.1 mph - N/A   Scattered Clouds
7:35 PM 55.4 °F - 55.4 °F 100% 29.75 in 10.0 mi SSW 10.4 mph - N/A   Scattered Clouds
7:55 PM 55.4 °F - 55.4 °F 100% 29.75 in 10.0 mi SSW 8.1 mph - N/A   Scattered Clouds
8:15 PM 55.4 °F - 55.4 °F 100% 29.74 in 10.0 mi SSW 8.1 mph - N/A   Mostly Cloudy
8:35 PM 55.4 °F - 55.4 °F 100% 29.77 in 10.0 mi WSW 6.9 mph - N/A   Mostly Cloudy
8:55 PM 55.4 °F - 55.4 °F 100% 29.79 in 10.0 mi West 8.1 mph - N/A   Mostly Cloudy
9:15 PM 51.8 °F - 48.2 °F 88% 29.81 in 7.0 mi West 21.9 mph 29.9 mph 0.06 in Rain Light Rain
9:35 PM 51.8 °F - 46.4 °F 82% 29.80 in 10.0 mi WSW 9.2 mph - 0.06 in   Overcast
9:55 PM 51.8 °F - 46.4 °F 82% 29.80 in 10.0 mi WSW 10.4 mph - 0.06 in   Mostly Cloudy
10:15 PM 50.0 °F - 46.4 °F 87% 29.81 in 10.0 mi WSW 10.4 mph - N/A   Clear
10:35 PM 50.0 °F - 46.4 °F 87% 29.82 in 10.0 mi WSW 10.4 mph - N/A   Clear
10:55 PM 50.0 °F - 46.4 °F 87% 29.82 in 10.0 mi WSW 11.5 mph - N/A   Clear
11:15 PM 50.0 °F - 46.4 °F 87% 29.83 in 10.0 mi WSW 9.2 mph - N/A   Clear
11:35 PM 48.2 °F - 44.6 °F 87% 29.84 in 10.0 mi West 9.2 mph - N/A   Clear
11:55 PM 48.2 °F - 44.6 °F 87% 29.84 in 10.0 mi West 8.1 mph - N/A   Clear